Location: Blankensee
(53.5126°N, 14.3055°E)
Time: 17:52:14
(UTC+00:00)

Cosmos 2237 Rocket - Pass Details

Date: 08 August 2020
Orbit: 836 x 849 km, 71.0° (Epoch: 19 September)

Event Time Altitude Azimuth Distance (km) Brightness Sun altitude
Rises 00:33:44 0° 325° (NW) 3,414 5.8 -18.1°
Reaches altitude 10° 00:36:16 10° 320° (NW) 2,473 5.0 -17.9°
Maximum altitude 00:41:39 46° 249° (WSW) 1,122 2.5 -17.6°
Enters shadow 00:44:02 29° 196° (SSW) 1,487 2.9 -17.5°
